When you browse on this site, cookies collect data to enhance your experience and personalize the content and advertising you see.
Visit our Privacy Policy to learn more. By continuing to use the site, you agree to this use of cookies and data.
  • In Latvia
  • List of Countries
  • For 7 days
  • Water Temperature
  • Satellite Maps
  • Weather Map
  • Weather Widgets
  • user-avatar
    Login

    Hourly Weather Kitale

    Today, 17 December, Monday

    Time Temperature Precipitation Wind Pressure Humidity
    00:00 +16°C° 0 mm 1 mps 614 mmHg 64%
    01:00 +16°C° 0 mm 1 mps 614 mmHg 64%
    02:00 +15°C° 0 mm 1 mps 613 mmHg 66%
    03:00 +15°C° 0 mm 1 mps 613 mmHg 66%
    04:00 +15°C° 0 mm 1 mps 613 mmHg 67%
    05:00 +14°C° 0 mm 1 mps 613 mmHg 67%
    06:00 +18°C° 0 mm 1 mps 614 mmHg 60%
    07:00 +20°C° 0 mm 1 mps 616 mmHg 53%
    08:00 +23°C° 0 mm 1 mps 617 mmHg 46%
    09:00 +25°C° 0 mm 2 mps 617 mmHg 42%
    10:00 +26°C° 0 mm 2 mps 617 mmHg 37%
    11:00 +28°C° 0 mm 2 mps 617 mmHg 33%
    12:00 +28°C° 0 mm 3 mps 617 mmHg 32%
    13:00 +28°C° 0 mm 3 mps 616 mmHg 31%
    14:00 +28°C° 0 mm 3 mps 615 mmHg 31%
    15:00 +27°C° 0 mm 3 mps 615 mmHg 34%
    16:00 +26°C° 0 mm 2 mps 614 mmHg 38%
    17:00 +25°C° 0 mm 2 mps 614 mmHg 41%
    18:00 +23°C° 0 mm 2 mps 613 mmHg 45%
    19:00 +20°C° 0 mm 2 mps 613 mmHg 49%
    20:00 +19°C° 0 mm 1 mps 613 mmHg 53%
    21:00 +19°C° 0 mm 1 mps 613 mmHg 54%
    22:00 +18°C° 0 mm 1 mps 613 mmHg 56%
    23:00 +18°C° 0 mm 1 mps 613 mmHg 58%

    Tomorrow, 18 December, Tuesday

    Time Temperature Precipitation Wind Pressure Humidity
    00:00 +16°C° 0 mm 1 mps 613 mmHg 61%
    01:00 +16°C° 0 mm 1 mps 613 mmHg 64%
    02:00 +16°C° 0 mm 1 mps 613 mmHg 67%
    03:00 +15°C° 0 mm 1 mps 613 mmHg 69%
    04:00 +15°C° 0 mm 1 mps 613 mmHg 72%
    05:00 +15°C° 0 mm 1 mps 613 mmHg 74%
    06:00 +18°C° 0 mm 1 mps 614 mmHg 65%
    07:00 +21°C° 0 mm 1 mps 615 mmHg 57%
    08:00 +24°C° 0 mm 1 mps 616 mmHg 48%
    09:00 +25°C° 0 mm 1 mps 617 mmHg 41%
    10:00 +27°C° 0 mm 1 mps 617 mmHg 34%
    11:00 +29°C° 0 mm 2 mps 617 mmHg 27%
    12:00 +29°C° 0 mm 2 mps 616 mmHg 27%
    13:00 +29°C° 0 mm 2 mps 616 mmHg 27%
    14:00 +29°C° 0 mm 2 mps 615 mmHg 26%
    15:00 +28°C° 0 mm 2 mps 614 mmHg 31%
    16:00 +26°C° 0 mm 2 mps 614 mmHg 36%
    17:00 +25°C° 0 mm 2 mps 613 mmHg 41%
    18:00 +24°C° 0 mm 2 mps 613 mmHg 45%
    19:00 +22°C° 0 mm 1 mps 613 mmHg 49%
    20:00 +21°C° 0 mm 1 mps 613 mmHg 52%
    21:00 +20°C° 0 mm 1 mps 613 mmHg 54%
    22:00 +20°C° 0 mm 1 mps 614 mmHg 55%
    23:00 +19°C° 0 mm 1 mps 614 mmHg 57%

    Day after tomorrow, 19 December, Wednesday

    Time Temperature Precipitation Wind Pressure Humidity
    00:00 +19°C° 0 mm 1 mps 613 mmHg 60%
    01:00 +18°C° 0 mm 1 mps 613 mmHg 62%
    02:00 +18°C° 0 mm 1 mps 612 mmHg 65%
    03:00 +16°C° 0 mm 1 mps 612 mmHg 67%
    04:00 +16°C° 0 mm 1 mps 612 mmHg 69%
    05:00 +16°C° 0 mm 1 mps 612 mmHg 71%
    06:00 +19°C° 0 mm 1 mps 614 mmHg 64%
    07:00 +21°C° 0 mm 1 mps 615 mmHg 57%
    08:00 +23°C° 0 mm 1 mps 616 mmHg 50%
    09:00 +25°C° 0 mm 2 mps 616 mmHg 44%
    10:00 +27°C° 0 mm 2 mps 616 mmHg 39%
    11:00 +28°C° 0 mm 2 mps 617 mmHg 34%
    12:00 +28°C° 0 mm 2 mps 616 mmHg 36%
    13:00 +27°C° 0 mm 2 mps 615 mmHg 37%
    14:00 +27°C° 0 mm 2 mps 614 mmHg 39%
    15:00 +26°C° 0 mm 2 mps 613 mmHg 41%
    16:00 +25°C° 0 mm 2 mps 613 mmHg 43%
    17:00 +24°C° 0 mm 2 mps 613 mmHg 45%
    18:00 +23°C° 0 mm 1 mps 613 mmHg 47%
    19:00 +22°C° 0 mm 1 mps 613 mmHg 49%
    20:00 +21°C° 0 mm 1 mps 614 mmHg 51%
    21:00 +20°C° 0 mm 1 mps 614 mmHg 53%
    22:00 +19°C° 0 mm 1 mps 614 mmHg 54%
    23:00 +19°C° 0 mm 1 mps 613 mmHg 55%

    20 December, Thursday

    Time Temperature Precipitation Wind Pressure Humidity
    00:00 +18°C° 0 mm 1 mps 613 mmHg 57%
    01:00 +18°C° 0 mm 1 mps 612 mmHg 59%
    02:00 +16°C° 0 mm 1 mps 612 mmHg 61%
    03:00 +16°C° 0 mm 1 mps 612 mmHg 62%
    04:00 +16°C° 0 mm 1 mps 612 mmHg 64%
    05:00 +15°C° 0 mm 1 mps 612 mmHg 65%
    06:00 +19°C° 0 mm 1 mps 613 mmHg 58%
    07:00 +21°C° 0 mm 1 mps 615 mmHg 51%
    08:00 +23°C° 0 mm 1 mps 616 mmHg 43%
    09:00 +25°C° 0 mm 2 mps 616 mmHg 39%
    10:00 +27°C° 0 mm 2 mps 616 mmHg 34%
    11:00 +28°C° 0 mm 2 mps 616 mmHg 30%
    12:00 +28°C° 0 mm 2 mps 615 mmHg 30%
    13:00 +28°C° 0 mm 2 mps 614 mmHg 31%
    14:00 +27°C° 0 mm 3 mps 614 mmHg 32%
    15:00 +26°C° 0 mm 2 mps 613 mmHg 35%
    16:00 +25°C° 0 mm 2 mps 613 mmHg 38%
    17:00 +24°C° 0 mm 2 mps 613 mmHg 40%
    18:00 +23°C° 0 mm 2 mps 613 mmHg 43%
    19:00 +22°C° 0 mm 1 mps 613 mmHg 46%
    20:00 +21°C° 0 mm 1 mps 613 mmHg 48%
    21:00 +20°C° 0 mm 1 mps 613 mmHg 49%
    22:00 +19°C° 0 mm 1 mps 613 mmHg 51%
    23:00 +18°C° 0 mm 1 mps 613 mmHg 52%

    21 December, Friday

    Time Temperature Precipitation Wind Pressure Humidity
    00:00 +18°C° 0 mm 1 mps 613 mmHg 53%
    01:00 +16°C° 0 mm 1 mps 612 mmHg 54%
    02:00 +16°C° 0 mm 1 mps 612 mmHg 55%
    03:00 +16°C° 0 mm 1 mps 612 mmHg 58%
    04:00 +15°C° 0 mm 1 mps 612 mmHg 60%
    05:00 +15°C° 0 mm 1 mps 612 mmHg 62%
    06:00 +18°C° 0 mm 1 mps 614 mmHg 56%
    07:00 +21°C° 0 mm 1 mps 615 mmHg 50%
    08:00 +23°C° 0 mm 1 mps 616 mmHg 44%
    09:00 +25°C° 0 mm 2 mps 616 mmHg 39%
    10:00 +26°C° 0 mm 2 mps 616 mmHg 35%
    11:00 +28°C° 0 mm 3 mps 616 mmHg 31%
    12:00 +28°C° 0 mm 3 mps 615 mmHg 32%
    13:00 +27°C° 0 mm 3 mps 614 mmHg 33%
    14:00 +27°C° 0 mm 3 mps 613 mmHg 34%
    15:00 +26°C° 0 mm 2 mps 613 mmHg 37%
    16:00 +25°C° 0 mm 2 mps 613 mmHg 40%
    17:00 +24°C° 0 mm 2 mps 613 mmHg 43%
    18:00 +23°C° 0 mm 2 mps 613 mmHg 46%
    19:00 +21°C° 0 mm 2 mps 613 mmHg 49%
    20:00 +21°C° 0 mm 1 mps 613 mmHg 52%
    21:00 +20°C° 0 mm 1 mps 613 mmHg 53%
    22:00 +20°C° 0 mm 1 mps 613 mmHg 54%
    23:00 +19°C° 0 mm 1 mps 613 mmHg 56%

    22 December, Saturday

    Time Temperature Precipitation Wind Pressure Humidity
    00:00 +19°C° 0 mm 1 mps 613 mmHg 58%
    01:00 +18°C° 0 mm 1 mps 612 mmHg 61%
    02:00 +18°C° 0 mm 1 mps 612 mmHg 63%
    03:00 +16°C° 0 mm 1 mps 612 mmHg 65%
    04:00 +16°C° 0 mm 1 mps 612 mmHg 67%
    05:00 +16°C° 0 mm 1 mps 612 mmHg 69%
    06:00 +19°C° 0 mm 1 mps 613 mmHg 63%
    07:00 +21°C° 0 mm 1 mps 614 mmHg 56%
    08:00 +23°C° 0 mm 1 mps 615 mmHg 50%
    09:00 +24°C° 0 mm 2 mps 615 mmHg 46%
    10:00 +25°C° 0 mm 2 mps 615 mmHg 42%
    11:00 +27°C° 0 mm 2 mps 615 mmHg 39%
    12:00 +26°C° 0.1 mm 2 mps 614 mmHg 41%
    13:00 +26°C° 0.1 mm 2 mps 613 mmHg 43%
    14:00 +25°C° 0.1 mm 2 mps 613 mmHg 45%
    15:00 +25°C° 0.1 mm 2 mps 612 mmHg 47%
    16:00 +24°C° 0.1 mm 2 mps 612 mmHg 50%
    17:00 +23°C° 0.1 mm 1 mps 612 mmHg 52%
    18:00 +22°C° 0.1 mm 1 mps 612 mmHg 55%
    19:00 +21°C° 0.1 mm 1 mps 612 mmHg 58%
    20:00 +20°C° 0.1 mm 1 mps 613 mmHg 61%
    21:00 +20°C° 0.1 mm 1 mps 613 mmHg 62%
    22:00 +20°C° 0.1 mm 1 mps 612 mmHg 63%
    23:00 +19°C° 0.1 mm 1 mps 612 mmHg 64%
    Show more